This is the latest recevied weather packets stored in our database for station/object K4AVM-13. If no packets are shown the sender has not sent any weather packets the latest 10 day(s).
| Time | Temp. | Humidity | Pressure | Rain* | Wind** | Luminosity | Snow |
|---|---|---|---|---|---|---|---|
| 1777811772 | 10° C | 57% | 1019.9 hPa | 0 mm | - | 251 W/m² | - |
| 1777811468 | 10° C | 55% | 1019.8 hPa | 0 mm | - | 241 W/m² | - |
| 1777811164 | 10° C | 56% | 1019.8 hPa | 0 mm | - | 227 W/m² | - |
| 1777810862 | 10° C | 57% | 1019.6 hPa | 0 mm | - | 215 W/m² | - |
| 1777810558 | 10° C | 60% | 1019.7 hPa | 0 mm | - | 206 W/m² | - |
| 1777810255 | 9.44° C | 61% | 1019.5 hPa | 0 mm | - | 222 W/m² | - |
| 1777809951 | 8.89° C | 59% | 1019.6 hPa | 0 mm | - | 189 W/m² | - |
| 1777809649 | 8.89° C | 60% | 1019.6 hPa | 0 mm | - | 167 W/m² | - |
| 1777809347 | 8.89° C | 60% | 1019.5 hPa | 0 mm | - | 148 W/m² | - |
| 1777809044 | 7.78° C | 63% | 1019.4 hPa | 0 mm | - | 79 W/m² | - |
| 1777808741 | 7.78° C | 65% | 1019.3 hPa | 0 mm | - | 47 W/m² | - |
| 1777808438 | 7.22° C | 66% | 1019.4 hPa | 0 mm | - | 39 W/m² | - |
| 1777808136 | 7.22° C | 67% | 1019.2 hPa | 0 mm | - | 37 W/m² | - |
| 1777807834 | 7.22° C | 67% | 1019.1 hPa | 0 mm | - | 37 W/m² | - |
| 1777807532 | 6.67° C | 68% | 1019.3 hPa | 0 mm | - | 38 W/m² | - |
| 1777807227 | 6.67° C | 68% | 1018.7 hPa | 0 mm | - | 34 W/m² | - |
| 1777806924 | 6.67° C | 69% | 1018.8 hPa | 0 mm | - | 31 W/m² | - |
| 1777806621 | 6.11° C | 69% | 1018.7 hPa | 0 mm | - | 30 W/m² | - |
| 1777806317 | 6.11° C | 69% | 1018.8 hPa | 0 mm | - | 28 W/m² | - |
| 1777806014 | 6.11° C | 70% | 1018.7 hPa | 0 mm | - | 25 W/m² | - |
| 1777805710 | 5.56° C | 71% | 1018.4 hPa | 0 mm | - | 23 W/m² | - |
| 1777805408 | 5.56° C | 72% | 1018.3 hPa | 0 mm | - | 21 W/m² | - |
| 1777805106 | 5.56° C | 72% | 1018.2 hPa | 0 mm | - | 18 W/m² | - |
| 1777804803 | 5.56° C | 72% | 1018.2 hPa | 0 mm | - | 16 W/m² | - |
| 1777804501 | 5.56° C | 73% | 1018.1 hPa | 0 mm | - | 13 W/m² | - |
* Rain latest hour (hover to see other rain measurements)
** Current wind speed in m/s (hover to see current wind gust speed)